Weather History for ROIG - September, 2013

Change the Weather History Date:

Monday, September 30, 2013

  Actual Average Record
Temperature  
Mean Temperature 83 °F -  
Max Temperature 88 °F 80 °F - ()
Min Temperature 78 °F 73 °F - ()
Cooling Degree Days 18    
Growing Degree Days 33 (Base 50)    
Moisture  
Dew Point 75 °F    
Average Humidity 78    
Maximum Humidity 94    
Minimum Humidity 58    
Precipitation  
Precipitation 0.00 in - - ()
Sea Level Pressure  
Sea Level Pressure 29.83 in    
Wind  
Wind Speed 7 mph ()    
Max Wind Speed 15 mph    
Max Gust Speed -    
Visibility 7.6 miles    
Events Rain    
T = Trace of Precipitation, MM = Missing Value Source: Averaged Metar Reports

Daily Weather History Graph

Daily Weather History Graph

Search for Another Location

Airport or City:

Trip Planner

Search our weather history database for the weather conditions in past years. The results will help you decide how hot, cold, wet, or windy it might be!

Date:

Astronomy

Sep. 30, 2013 Rise Set
Actual Time 6:34 AM JST 6:31 PM JST
Civil Twilight 6:12 AM JST 6:54 PM JST
Nautical Twilight 5:45 AM JST 7:20 PM JST
Astronomical Twilight 5:19 AM JST 7:47 PM JST
Moon 2:05 AM JST (9/30) 3:17 PM JST (9/30)
Length of Visible Light 12h 42m
Length of Day
11h 56m
Waning Crescent, 23% of the Moon is Illuminated
Sep 30
Waning Crescent
Oct 5
New
Oct 12
First Quarter
Oct 19
Full
Oct 27
Last Quarter

Hourly Weather History & Observations

Time (JST) Temp. Heat Index Dew Point Humidity Pressure Visibility Wind Dir Wind Speed Gust Speed Precip Events Conditions
12:00 AM 82 °F - 78 °F 83% 29.85 in - ENE 8.1 mph - -  
3:00 AM 82 °F - 77 °F 80% 29.82 in 12 mi East 9.2 mph - -   Scattered Clouds
6:00 AM 80 °F - 75 °F 81% 29.82 in 12 mi East 8.1 mph - - Rain Light Rain Showers
6:00 AM 80.6 °F 86.2 °F 75.2 °F 84% 29.80 in 6.2 mi ESE 3.5 mph - N/A   Mostly Cloudy
7:00 AM 78.8 °F - 75.2 °F 89% 29.80 in 6.2 mi Variable 2.3 mph - N/A   Mostly Cloudy
7:25 AM 78.8 °F - 75.2 °F 89% 29.83 in 1.9 mi Variable 4.6 mph - N/A Rain Heavy Rain Showers
7:36 AM 78.8 °F - 75.2 °F 89% 29.83 in 5.0 mi South 5.8 mph - N/A Rain Light Rain Showers
7:46 AM 77.0 °F - 75.2 °F 94% 29.83 in 6.2 mi SSW 3.5 mph - N/A Rain Light Rain Showers
8:00 AM 78.8 °F - 75.2 °F 89% 29.83 in 6.2 mi Variable 2.3 mph - N/A Rain Light Rain Showers
9:00 AM 80 °F - 78 °F 93% 29.86 in 9 mi NNE 3.5 mph - - Rain Light Rain Showers
9:00 AM 80.6 °F 86.2 °F 75.2 °F 84% 29.83 in 6.2 mi NE 15.0 mph - N/A   Mostly Cloudy
10:00 AM 82.4 °F 89.5 °F 75.2 °F 79% 29.86 in 6.2 mi ENE 9.2 mph - N/A   Mostly Cloudy
11:00 AM 84.2 °F 92.3 °F 75.2 °F 74% 29.86 in 6.2 mi NE 10.4 mph - N/A   Mostly Cloudy
12:00 PM 87 °F - 78 °F 69% 29.86 in 9 mi ENE 12.7 mph - -   Partly Cloudy
12:00 PM 86.0 °F 95.1 °F 75.2 °F 70% 29.83 in 6.2 mi ENE 11.5 mph - N/A   Scattered Clouds
1:00 PM 86.0 °F 95.1 °F 75.2 °F 70% 29.83 in 6.2 mi ENE 10.4 mph - N/A   Scattered Clouds
2:00 PM 86.0 °F 93.4 °F 73.4 °F 66% 29.83 in 6.2 mi ENE 11.5 mph - N/A   Partly Cloudy
3:00 PM 88 °F - 75 °F 58% 29.83 in 9 mi ENE 11.5 mph - -   Partly Cloudy
3:00 PM 86.0 °F 93.4 °F 73.4 °F 66% 29.80 in 6.2 mi ENE 12.7 mph - N/A   Partly Cloudy
4:00 PM 86.0 °F 93.4 °F 73.4 °F 66% 29.80 in 6.2 mi ENE 12.7 mph - N/A   Partly Cloudy
5:00 PM 84.2 °F 90.9 °F 73.4 °F 70% 29.80 in 6.2 mi NE 13.8 mph - N/A   Partly Cloudy
6:00 PM 85 °F - 76 °F 67% 29.83 in 16 mi NE 10.4 mph - -   Scattered Clouds
6:00 PM 82.4 °F 88.2 °F 73.4 °F 74% 29.80 in 6.2 mi NNE 12.7 mph - N/A   Partly Cloudy
7:00 PM 80.6 °F 85.4 °F 73.4 °F 79% 29.83 in 6.2 mi NE 12.7 mph - N/A   Partly Cloudy
8:00 PM 80.6 °F 85.4 °F 73.4 °F 79% 29.86 in 6.2 mi NE 12.7 mph - N/A   Partly Cloudy
9:00 PM 82 °F - 76 °F 76% 29.89 in 16 mi NE 8.1 mph - - Rain Light Rain Showers